TimeCET,TemperatureF,Dew PointF,Humidity,Sea Level PressureIn,VisibilityMPH,Wind Direction,Wind SpeedMPH,Gust SpeedMPH,PrecipitationIn,Events,Conditions,WindDirDegrees,DateUTC
6:00 AM,59.0,55.4,88,29.83,6.2,Calm,Calm,-,N/A,,Partly Cloudy,0,2012-11-17 05:00:00
6:30 AM,59.0,57.2,94,29.86,6.2,Variable,1.2,-,N/A,,Partly Cloudy,0,2012-11-17 05:30:00
7:00 AM,59,55,84,29.87,6,Calm,Calm,,,,Clear,,2012-11-17 06:00:00
7:00 AM,59.0,55.4,88,29.83,-9999.0,Calm,Calm,-,N/A,,Clear,0,2012-11-17 06:00:00
7:30 AM,57.2,55.4,94,29.83,-9999.0,Variable,1.2,-,N/A,,Clear,0,2012-11-17 06:30:00
8:00 AM,57.2,55.4,94,29.83,-9999.0,NNE,1.2,-,N/A,,Clear,20,2012-11-17 07:00:00
8:30 AM,59.0,55.4,88,29.83,-9999.0,WNW,3.5,-,N/A,,Clear,300,2012-11-17 07:30:00
9:00 AM,60.8,57.2,88,29.83,-9999.0,NW,1.2,-,N/A,,Clear,310,2012-11-17 08:00:00
9:30 AM,60.8,55.4,82,29.83,6.2,Calm,Calm,-,N/A,,Unknown,0,2012-11-17 08:30:00
10:00 AM,62.6,57.2,82,29.83,6.2,Calm,Calm,-,N/A,,Unknown,0,2012-11-17 09:00:00
10:30 AM,62.6,57.2,82,29.83,5.6,Variable,1.2,-,N/A,,Unknown,0,2012-11-17 09:30:00
11:00 AM,64.4,59.0,83,29.83,5.0,Variable,1.2,-,N/A,,Unknown,0,2012-11-17 10:00:00
11:30 AM,68.0,59.0,73,29.83,5.6,Variable,2.3,-,N/A,,Unknown,0,2012-11-17 10:30:00
12:00 PM,68.0,59.0,73,29.80,5.6,Variable,2.3,-,N/A,,Unknown,0,2012-11-17 11:00:00
12:30 PM,69.8,57.2,64,29.80,5.6,ESE,6.9,-,N/A,,Unknown,110,2012-11-17 11:30:00
1:00 PM,69,58,60,29.80,6,East,8.1,,,,Partly Cloudy,100,2012-11-17 12:00:00
1:00 PM,68.0,59.0,73,29.77,5.6,East,8.1,-,N/A,,Unknown,100,2012-11-17 12:00:00
1:30 PM,71.6,59.0,64,29.77,-9999.0,NNE,4.6,-,N/A,,Clear,30,2012-11-17 12:30:00
2:00 PM,73.4,51.8,47,29.74,-9999.0,SSW,6.9,-,N/A,,Clear,210,2012-11-17 13:00:00
2:30 PM,73.4,50.0,44,29.74,-9999.0,SSW,5.8,-,N/A,,Clear,200,2012-11-17 13:30:00
3:00 PM,77.0,50.0,39,29.71,-9999.0,Variable,5.8,-,N/A,,Clear,0,2012-11-17 14:00:00
3:30 PM,73.4,55.4,53,29.71,-9999.0,South,5.8,-,N/A,,Clear,170,2012-11-17 14:30:00
4:00 PM,69.8,59.0,68,29.71,-9999.0,North,6.9,-,N/A,,Clear,360,2012-11-17 15:00:00
4:30 PM,68.0,60.8,78,29.71,-9999.0,NNE,5.8,-,N/A,,Clear,20,2012-11-17 15:30:00
5:00 PM,66.2,60.8,83,29.74,-9999.0,Variable,2.3,-,N/A,,Clear,0,2012-11-17 16:00:00
5:30 PM,66.2,60.8,83,29.74,-9999.0,NW,4.6,-,N/A,,Clear,310,2012-11-17 16:30:00
6:30 PM,66.2,59.0,78,29.74,-9999.0,Variable,2.3,-,N/A,,Clear,0,2012-11-17 17:30:00
7:00 PM,65,58,73,29.78,12,NW,5.8,,,Rain,Rain,310,2012-11-17 18:00:00
7:00 PM,64.4,59.0,83,29.74,-9999.0,NW,5.8,-,N/A,,Clear,310,2012-11-17 18:00:00
7:30 PM,64.4,57.2,77,29.77,6.2,WSW,10.4,-,N/A,,Drizzle,250,2012-11-17 18:30:00